Regional Weather Roundup
Issued by NWS

Home | Current Version | Previous Version | Text Only | Print | Product List | Glossary Off
Versions: 1 2 3 4 5 6 7 8 9 10 11 12 13 14 15 16 17 18 19 20 21 22 23 24 25 26 27 28 29 30 31 32 33 34 35 36 37 38 39 40 41 42 43 44 45 46 47 48 49 50

000
ASUS45 KBOU 211107
RWRCO

WEATHER ROUNDUP FOR COLORADO
NATIONAL WEATHER SERVICE DENVER/BOULDER CO
500 AM MDT SUN SEP 21 2014

NOTE: "FAIR" INDICATES FEW OR NO CLOUDS BELOW 12000 FEET WITH NO
SIGNIFICANT WEATHER AND/OR OBSTRUCTIONS TO VISIBILITY.

COZ001>005-013-030-031-211200-
...NORTHWEST COLORADO...

CITY           SKY/WX    TMP DP  RH WIND       PRES   REMARKS
CRAIG          PTCLDY    41  33  73 CALM      30.27R
HAYDEN         CLEAR     50  37  62 E9        30.27S
MEEKER         NOT AVBL
MOUNT WERNER   NOT AVBL
STEAMBOAT SPGS CLEAR     47  39  73 NW3       30.31R
WALDEN         CLEAR     36  32  87 SE5       30.41S
$$

COZ006>008-011-211200-
...WEST CENTRAL VALLEYS...

CITY           SKY/WX    TMP DP  RH WIND       PRES   REMARKS
GRAND JUNCTION MOCLDY    69  43  38 E12       30.15S
MONTROSE       LGT RAIN  65  52  62 S16G25    30.31R
EAGLE          PTCLDY    52  43  71 E6        30.33S
RIFLE          PTCLDY    57  44  62 SW5       30.21R
DELTA          LGT RAIN  67  52  57 SE7       30.26R
NUCLA          LGT RAIN  59  54  82 E15G21    30.34R
$$

COZ017>023-064>068-211200-
...SOUTHWEST COLORADO...

CITY           SKY/WX    TMP DP  RH WIND       PRES   REMARKS
DURANGO        LGT RAIN  56  54  93 N14       30.37R
CORTEZ         LGT RAIN  59  57  93 E9        30.27S
PAGOSA SPRINGS CLOUDY    57  50  77 NW6       30.40R
TELLURIDE      NOT AVBL
WOLF CREEK PAS CLOUDY    41  41 100 NE7       30.67R
$$

COZ009-010-012-014-032>034-037-058>063-211200-
...CENTRAL COLORADO...

CITY           SKY/WX    TMP DP  RH WIND       PRES   REMARKS
ASPEN          MOCLDY    62  42  47 SE15G22   30.36R
BUENA VISTA    LGT RAIN  53  50  91 CALM      30.48S
COPPER MTN     PTCLDY    46  36  66 S23       30.66R
BERTHOUD PASS  FAIR      36  34  93 SE16      30.71S FOG
COTTONWOOD PAS CLOUDY    50  45  81 CALM      30.57F
GUNNISON       CLOUDY    54  43  66 N8        30.43S
KREMMLING      PTCLDY    46  37  71 CALM      30.39R
LEADVILLE      CLOUDY    42  40  92 NE5       30.55F
MONARCH PASS   SNOW      41  41 100 E10       30.79R VSB<1/4
SALIDA         CLOUDY    56  53  91 CALM      30.53S
SUNLIGHT       PTCLDY    50  39  66 SE5       30.57S
WILKERSON PASS NOT AVBL
$$

COZ069>075-211200-
...SAN LUIS VALLEY/SANGRE DE CRISTO MOUNTAINS...

CITY           SKY/WX    TMP DP  RH WIND       PRES   REMARKS
ALAMOSA        PTCLDY    51  44  77 W5        30.40S
LA VETA PASS   NOT AVBL
SAGUACHE       NOT AVBL
$$

COZ035-036-038>040-211200-
...NORTHERN COLORADO FRONT RANGE...

CITY           SKY/WX    TMP DP  RH WIND       PRES   REMARKS
DENVER INTL AP CLOUDY    60  43  53 SE9       30.34S
DMNS CITY PARK   N/A     60  46  60 NW6G12    30.34S
AURORA         CLOUDY    60  48  65 E8        30.35F
FRONT RANGE AP CLOUDY    61  45  55 SE17      30.35F
ERIE MUNI ARPT CLOUDY    59  44  57 N7        30.36S
BOULDER MUN AP CLOUDY    59  43  55 N5        30.37S
CENTENNIAL     CLOUDY    59  53  80 NW8       30.36S
BROOMFIELD     MOCLDY    57  43  58 N13       30.37S
FORT COLLINS   MOCLDY    61  41  48 NE5       30.38F
LONGMONT       CLOUDY    62  44  53 NE5       30.38F
$$

COZ041-046-047-076>085-087-088-211200-
...PIKES PEAK/PALMER DIVIDE AND SOUTHERN FOOTHILLS...

CITY           SKY/WX    TMP DP  RH WIND       PRES   REMARKS
COLO. SPRINGS  LGT RAIN  59  53  80 S8        30.40S
A. F. ACADEMY  CLOUDY    59  50  70 SE7       30.40R
ELLICOTT       NOT AVBL
FALCON         CLOUDY    56  51  83 S6        30.43S
FORT CARSON    CLOUDY    59  53  79 S10       30.37F
LIMON          CLOUDY    56  44  64 SE8       30.38S
MONUMENT HILL  CLOUDY    52  46  82 S8        30.41F
TRINIDAD       LGT RAIN  59  54  83 N12       30.36S
$$

COZ042>045-048>051-090-091-211200-
...NORTHEAST COLORADO...

CITY           SKY/WX    TMP DP  RH WIND       PRES   REMARKS
GREELEY ARPT   CLOUDY    59  39  47 CALM      30.37R
AKRON          CLOUDY    55  43  63 SE8       30.34R
BURLINGTON     CLOUDY    53  45  74 CALM      30.32R
WRAY           PTCLDY    48  45  88 W3        30.32R
STERLING       MOCLDY    54  46  76 NW3       30.33R
HOLYOKE        PTCLDY    54  45  71 N5        30.32S
FORT MORGAN    CLOUDY    56  44  63 E5        30.35S
$$

COZ086-089-092>099-211200-
...SOUTHEAST COLORADO...

CITY           SKY/WX    TMP DP  RH WIND       PRES   REMARKS
PUEBLO         CLOUDY    60  58  92 NW5       30.32F
LA JUNTA       CLOUDY    63  51  65 CALM      30.29S
LAMAR          PTCLDY    54  49  83 NE5       30.26R
SPRINGFIELD      N/A     61  55  81 NW5       30.27R
$$



USA.gov is the U.S. government's official web portal to all federal, state and local government web resources and services.